Simultaneous Nadir Overpasses (SNOs) Predictions

Prediction of SNOs between GOES-14 and AQUA Satellite Orbit:

Table of predicted SNOs for the next 14.0 days since TLE Epoch: 10/10/2020
Index Date Time (GOES-14) GOES-14 Lat,Lon AQUA Lat,Lon Distance(km) Time Diff (sec)
1 10/11/2020 08:14:44 0.24,-104.37 -0.66,-100.22 471.70 80
2 10/11/2020 20:36:08 -0.21,-104.33 -0.44,-105.42 122.99 80
3 10/13/2020 20:26:36 -0.21,-104.33 0.21,-102.46 212.55 80
4 10/14/2020 08:47:52 0.19,-104.39 0.86,-107.63 368.00 80
5 10/16/2020 08:35:39 0.19,-104.38 0.27,-104.66 32.73 80
6 10/18/2020 08:20:47 0.20,-104.36 -0.38,-101.71 302.57 80
7 10/18/2020 20:42:10 -0.17,-104.28 -0.70,-106.90 296.81 80
8 10/20/2020 20:32:37 -0.18,-104.27 -0.10,-103.94 38.68 80
9 10/22/2020 20:20:25 -0.18,-104.27 0.50,-100.97 374.33 80
10 10/23/2020 08:41:41 0.15,-104.36 0.52,-106.14 202.41 80
